Wetbulb
56.90 57.20 56.61 54.76 53.25 52.07 51.71 64.31 56.73 63.50 63.82 56.88 58.84 58.52 56.23 51.50 57.15 58.32 57.17 57.37 56.21 55.00 54.75 54.35 53.96 53.77 57.36 58.89 59.34 54.74 56.77 54.81 52.06 53.73 56.70 57.29 56.62 54.92 54.21 50.26 49.92 51.17 49.87 50.52
57.17 57.29 56.16 54.25 52.96 52.25 61.20 61.81 59.85 64.02 61.79 54.47 56.26 57.72 56.49 57.37 56.97 56.81 57.03 56.30 58.09 58.51 55.92 53.19 54.85 56.15 58.71 58.39 58.45 58.16 57.97 54.17 50.39 52.17 54.96 56.87 54.78 56.19 55.52 55.18 54.77 52.06 49.46 50.67
57.16 57.12 55.94 54.07 53.02 52.46 59.43 62.14 55.64 59.77 62.39 61.72 58.09 56.66 55.74 55.33 57.59 57.11 58.00 57.66 58.95 57.57 56.41 57.92 55.53 55.34 57.22 57.67 58.25 57.61 60.11 55.61 53.56 50.06 52.89 55.50 53.40 54.61 55.90 54.92 51.75 52.17 52.91 54.05
57.73 57.16 56.12 54.29 53.06 52.69 59.44 60.98 57.22 57.35 55.68 58.08 58.55 57.74 56.53 54.71 54.63 57.42 58.41 56.70 56.26 56.07 54.52 55.24 54.79 55.93 56.43 57.32 56.25 57.97 57.49 53.20 54.80 55.48 55.44 55.56 54.71 53.97 54.56 54.17 54.85 52.10 53.64 53.77
56.93 56.91 56.40 54.76 53.20 52.11 61.13 58.61 58.51 60.09 59.82 57.71 57.04 53.74 55.92 54.24 55.16 55.69 55.12 55.45 55.11 55.86 54.03 54.54 53.13 54.26 54.94 54.17 56.58 56.23 56.77 52.59 54.48 53.17 54.61 55.04 53.48 54.78 55.14 54.67 55.25 55.21 54.99 54.61
56.98 56.78 56.80 55.31 53.51 54.71 59.47 60.25 61.22 58.55 52.02 56.61 56.94 57.45 56.15 54.93 56.16 56.28 56.86 55.85 55.74 54.74 55.57 57.24 58.02 58.07 57.52 56.87 55.37 54.88 54.68 52.79 51.68 49.16 52.40 53.10 50.96 54.24 54.92 55.65 56.63 55.96 53.42 58.91
57.18 57.18 56.88 56.12 54.35 53.28 59.62 57.85 58.86 56.87 53.79 56.89 56.00 55.47 55.43 55.20 55.86 55.40 56.82 57.54 56.18 57.97 60.55 60.26 59.43 58.09 57.30 56.70 56.42 56.75 53.52 53.01 52.33 49.71 51.45 44.86 53.50 59.32 58.50 56.83 57.56 58.67 59.58 61.07
57.28 57.24 56.93 56.77 55.15 53.54 58.25 57.88 58.06 56.98 55.75 55.42 54.53 53.94 54.06 55.79 56.91 55.79 56.07 57.64 59.01 60.29 58.33 55.03 53.28 53.22 52.23 52.81 54.75 55.34 55.82 53.73 49.81 47.50 47.43 50.24 51.69 55.58 56.64 56.28 56.16 60.72 60.25 60.99
57.33 56.53 57.09 56.84 55.51 53.98 59.34 56.89 58.14 58.25 54.62 54.23 55.13 54.19 54.06 54.10 55.08 54.99 55.56 58.82 60.28 58.84 56.24 53.95 49.10 48.23 49.97 48.98 51.84 55.75 54.21 55.79 52.17 50.64 45.50 43.40 53.66 56.68 59.44 59.20 52.90 60.92 61.56 60.98
56.61 57.33 57.33 56.85 56.03 54.47 56.27 57.33 57.48 57.34 54.70 57.45 56.00 54.83 54.34 55.83 54.92 54.01 55.70 56.33 56.60 57.99 53.86 51.06 49.83 49.59 52.02 47.77 48.36 51.10 52.29 52.90 49.62 49.68 47.90 50.83 56.66 58.31 60.50 50.80 54.64 61.68 62.50 62.22
55.45 56.79 57.27 56.78 55.69 55.09 54.88 57.47 57.40 55.04 54.90 56.10 55.74 56.02 55.09 55.77 55.49 52.45 55.60 54.00 55.40 55.02 51.85 52.22 53.10 50.45 52.85 50.94 52.90 51.70 51.17 50.05 50.03 51.32 48.38 46.12 58.39 58.30 54.51 58.58 61.09 61.33 61.56 61.87
54.76 56.12 57.11 56.30 55.27 54.31 53.77 57.60 58.08 56.46 53.96 56.34 57.03 57.86 58.41 57.63 57.45 55.44 56.37 54.83 54.61 56.65 54.71 55.00 55.77 52.04 53.91 51.77 48.59 54.87 49.47 53.56 51.98 52.20 53.02 56.95 58.34 59.01 61.76 60.46 58.49 59.57 59.56 60.48
54.11 55.86 56.65 56.46 55.02 53.94 53.13 55.94 55.74 56.34 55.62 56.71 56.80 56.25 58.17 59.54 58.82 59.72 54.22 57.35 56.85 56.87 58.44 55.57 54.86 50.89 54.90 49.17 50.55 51.79 54.32 55.78 52.18 52.24 53.99 55.43 56.78 59.05 60.16 60.29 59.28 59.61 59.97 60.12
54.35 55.95 56.38 56.66 55.12 53.61 52.65 55.30 56.50 56.23 55.72 52.39 55.52 58.54 57.52 59.40 58.91 58.83 58.69 57.44 58.44 58.41 58.31 55.23 53.55 51.51 55.39 51.33 52.62 51.55 53.23 54.92 52.17 52.45 54.93 55.54 55.93 57.09 58.13 59.13 59.80 59.05 59.61 59.76
55.63 55.97 55.95 56.24 54.84 53.25 54.78 57.79 58.90 57.88 54.08 51.48 53.39 57.56 57.33 57.07 57.22 56.17 56.90 56.41 56.81 56.85 54.80 53.73 52.23 56.16 53.33 53.81 53.18 51.05 54.48 52.87 50.31 49.65 55.14 55.16 55.92 57.83 58.70 58.02 58.08 59.26 59.43 59.42
55.41 55.75 55.57 55.67 54.23 52.96 56.07 54.53 57.61 59.00 56.75 52.37 50.04 56.37 54.85 55.84 57.27 56.67 56.06 56.96 56.37 55.96 55.09 54.65 56.71 56.33 53.82 50.23 49.86 54.41 55.07 56.38 57.27 54.97 57.60 57.45 57.87 58.70 59.43 59.01 59.70 59.80 59.68 59.63
55.12 55.25 54.96 54.99 53.07 55.54 54.73 52.46 54.89 52.64 57.14 52.09 49.81 52.79 54.95 55.86 56.83 57.01 56.34 57.21 56.96 56.62 55.77 54.45 54.59 55.11 54.17 52.00 49.20 55.23 56.84 57.51 57.57 58.43 57.85 56.43 58.38 57.93 59.85 59.67 59.58 59.27 60.24 60.35
55.05 54.84 54.69 53.53 51.97 51.60 53.59 56.74 51.64 53.75 53.12 52.82 48.77 51.18 51.70 56.33 56.48 54.87 58.64 55.13 55.30 55.69 55.00 57.26 53.87 55.50 54.60 49.88 54.63 55.84 56.38 56.92 57.45 58.46 59.17 58.74 59.32 59.51 59.46 60.02 59.86 58.74 58.74 59.68
54.68 54.28 52.19 54.67 53.03 53.89 55.57 53.04 52.94 56.15 52.93 50.36 50.84 48.39 48.50 55.24 55.39 57.60 56.74 57.55 52.37 57.55 53.28 53.96 55.59 52.04 49.14 53.50 55.36 56.15 56.41 56.47 56.95 58.28 58.63 58.70 58.11 58.16 58.51 58.71 58.71 58.38 58.21 58.92
53.40 53.54 53.21 51.32 54.85 53.92 53.47 54.38 52.29 51.88 51.64 52.51 48.91 53.95 49.57 53.18 54.49 54.45 55.23 55.83 52.23 50.36 52.57 57.40 52.12 51.26 55.81 57.02 58.50 58.76 58.56 58.58 58.78 56.68 56.16 56.95 56.95 57.20 57.86 58.31 59.04 58.83 58.43 58.36
52.51 52.47 50.86 55.73 52.66 55.84 54.56 49.59 47.94 48.30 45.11 50.45 51.21 50.90 50.07 54.76 50.04 51.86 56.80 54.18 54.90 47.72 49.88 50.58 50.31 49.00 55.00 57.09 57.51 59.97 58.68 59.38 59.61 59.36 59.21 59.17 58.85 58.34 58.27 58.53 59.09 59.06 59.42 57.92
51.90 51.75 53.21 55.45 52.98 51.18 47.48 45.90 48.63 45.94 43.92 51.17 50.71 52.69 53.33 55.48 56.04 52.26 54.09 50.77 51.79 45.17 54.83 50.01 46.43 53.68 57.08 57.78 57.61 58.45 59.76 59.75 59.28 59.49 59.03 59.31 59.55 59.74 59.14 59.16 58.46 59.11 60.06 59.14
52.20 51.77 48.20 50.30 49.85 41.28 42.04 40.51 44.53 43.39 50.38 52.40 52.62 51.60 54.75 54.41 54.66 53.06 52.11 47.48 46.69 54.95 48.78 46.62 51.14 56.27 57.98 58.49 58.49 58.65 60.02 59.98 59.43 59.20 59.87 60.04 59.97 60.20 59.08 58.51 59.89 58.67 58.35 60.25
47.17 44.26 36.75 45.30 44.17 46.07 47.29 47.60 50.60 51.60 54.31 54.69 54.39 53.62 53.15 55.25 51.94 52.53 47.10 51.87 51.72 45.61 43.91 45.78 54.06 56.17 57.87 58.95 59.16 58.85 58.32 58.79 58.73 59.09 59.48 59.34 59.34 59.30 59.67 58.20 58.61 57.69 57.14 58.92
44.32 44.43 40.32 45.56 50.10 52.23 53.24 53.27 52.47 53.16 54.65 51.65 53.12 53.31 53.17 51.18 48.65 51.50 50.08 46.15 43.42 46.41 46.95 52.88 55.11 57.13 57.46 57.25 57.85 58.47 58.82 59.01 59.12 59.39 58.69 58.67 58.99 58.58 57.44 58.24 57.75 58.05 58.29 58.74
45.01 44.96 44.02 49.18 48.55 48.92 50.24 50.72 50.86 54.25 52.76 52.98 53.59 50.32 48.22 47.40 49.66 46.82 45.52 44.25 43.56 50.70 53.86 55.49 57.23 57.34 57.87 58.57 59.15 59.51 59.69 59.43 59.15 59.24 58.92 58.71 58.49 56.54 57.41 57.72 56.96 56.87 58.18 58.21
43.56 42.28 47.75 49.88 50.23 49.69 51.80 52.45 52.90 55.21 51.67 49.44 50.64 45.56 45.22 52.45 47.00 45.70 50.22 48.78 52.33 54.71 55.94 57.13 58.10 57.90 58.60 59.61 59.94 59.74 59.26 59.04 59.39 58.89 58.61 58.49 57.74 58.89 56.44 54.98 56.22 56.77 57.09 58.27
MSLP
1018.93 1017.88 1016.85 1015.89 1014.95 1013.93 1013.72 1010.58 1008.25 1009.51 1009.55 1008.09 1007.12 1005.82 1006.32 1006.78 1005.34 1004.95 1004.31 1004.00 1003.70 1003.74 1004.20 1004.05 1004.19 1004.45 1005.13 1006.10 1005.75 1004.92 1004.98 1003.76 1002.60 1001.82 1001.84 1002.43 1002.16 1001.62 1001.40 1000.98 1001.07 1001.34 1001.56 1001.02
1019.04 1018.01 1016.94 1015.89 1014.97 1014.29 1012.71 1009.71 1008.70 1009.01 1008.67 1006.70 1006.23 1006.49 1006.17 1006.19 1005.39 1005.38 1004.85 1004.67 1004.74 1004.81 1004.68 1004.77 1004.98 1005.41 1006.34 1006.44 1005.97 1005.83 1005.47 1004.30 1003.00 1001.75 1001.62 1002.15 1001.86 1001.66 1001.46 1001.04 1000.87 1000.93 1001.20 1001.14
1019.16 1018.20 1017.03 1015.81 1014.78 1014.01 1013.15 1010.02 1008.32 1008.19 1008.00 1007.93 1006.83 1006.39 1006.33 1006.03 1006.39 1006.09 1005.93 1005.70 1005.45 1005.31 1005.29 1005.56 1005.41 1005.58 1006.39 1006.80 1006.66 1007.07 1006.67 1004.70 1003.81 1002.82 1001.92 1002.57 1002.05 1001.85 1001.94 1001.46 1000.77 1000.32 1000.60 1001.05
1019.50 1018.54 1017.38 1015.89 1014.66 1013.69 1013.28 1010.76 1009.90 1009.99 1007.88 1007.91 1007.63 1007.46 1007.24 1006.67 1006.46 1006.66 1006.59 1006.42 1006.32 1006.18 1005.92 1005.92 1005.81 1006.18 1006.17 1006.49 1007.11 1007.00 1006.26 1005.11 1004.44 1003.82 1003.41 1003.35 1003.03 1002.51 1002.05 1001.94 1001.75 1001.36 1001.21 1001.77
1019.92 1019.05 1018.00 1016.71 1014.89 1013.30 1012.14 1011.56 1011.17 1010.60 1009.65 1009.27 1008.52 1008.55 1007.96 1007.63 1007.55 1007.60 1007.07 1006.93 1007.25 1007.22 1006.92 1006.99 1006.75 1006.82 1006.71 1006.65 1006.87 1006.74 1006.50 1005.80 1005.28 1004.41 1003.92 1003.46 1003.15 1002.73 1002.26 1001.89 1001.94 1001.73 1002.22 1002.49
1020.31 1019.55 1018.66 1017.73 1016.45 1014.08 1013.18 1013.62 1013.12 1012.03 1010.69 1009.54 1008.92 1008.84 1008.96 1008.81 1008.77 1008.61 1008.44 1008.26 1007.91 1007.70 1007.88 1008.23 1007.84 1007.52 1007.36 1007.24 1007.41 1007.25 1007.07 1006.27 1005.61 1004.35 1003.94 1003.52 1003.12 1002.51 1002.22 1001.96 1002.00 1002.41 1002.57 1003.47
1020.69 1020.04 1019.30 1018.59 1017.89 1017.21 1015.32 1015.49 1014.40 1012.05 1010.59 1010.17 1010.03 1010.08 1010.10 1009.75 1009.89 1009.60 1009.05 1008.99 1008.75 1009.17 1009.16 1008.56 1007.91 1007.46 1007.23 1007.32 1007.43 1007.53 1007.22 1007.09 1006.37 1005.03 1004.59 1003.85 1002.81 1003.71 1003.50 1003.23 1003.10 1003.29 1004.38 1005.33
1020.96 1020.41 1019.83 1019.26 1018.65 1018.00 1016.46 1016.22 1015.08 1013.44 1011.49 1011.42 1011.07 1010.91 1010.75 1010.56 1010.44 1010.45 1009.84 1009.46 1009.84 1009.77 1009.22 1008.18 1007.20 1006.58 1007.11 1007.08 1007.51 1007.47 1007.52 1007.33 1006.40 1005.61 1004.47 1003.69 1003.67 1004.39 1004.77 1004.61 1004.13 1005.57 1005.63 1006.28
1021.16 1020.68 1020.15 1019.67 1019.23 1018.63 1017.19 1016.95 1016.57 1014.84 1013.13 1011.91 1012.30 1011.65 1011.60 1010.77 1010.33 1010.06 1010.08 1010.46 1010.47 1009.99 1008.93 1008.00 1007.48 1006.29 1006.47 1006.64 1007.30 1007.84 1007.62 1007.63 1007.07 1005.70 1005.40 1004.39 1005.18 1005.94 1006.39 1006.21 1005.61 1006.72 1007.09 1007.33
1021.35 1020.86 1020.44 1020.04 1019.60 1019.12 1018.23 1017.33 1017.33 1015.78 1014.01 1013.04 1013.09 1012.09 1011.97 1012.02 1011.48 1010.71 1010.58 1010.58 1010.18 1010.11 1008.59 1007.85 1007.25 1006.92 1007.69 1007.15 1006.94 1007.21 1007.31 1007.24 1006.79 1005.96 1005.84 1005.27 1006.54 1006.89 1007.00 1006.81 1007.69 1007.98 1008.08 1008.11
1021.42 1021.04 1020.68 1020.33 1019.97 1019.51 1018.74 1017.67 1017.76 1016.98 1015.17 1013.68 1013.75 1013.40 1012.89 1012.49 1012.26 1011.47 1011.21 1010.97 1010.51 1009.82 1009.01 1008.16 1007.40 1007.78 1007.59 1007.88 1007.55 1007.51 1007.29 1006.85 1006.22 1006.33 1006.28 1006.58 1007.54 1007.38 1007.47 1008.40 1008.53 1008.60 1008.65 1008.82
1021.40 1021.09 1020.76 1020.50 1020.21 1019.90 1019.39 1017.49 1017.84 1017.92 1016.64 1014.24 1014.46 1014.00 1013.82 1013.58 1013.27 1012.80 1012.00 1011.50 1011.08 1010.30 1009.50 1009.31 1008.92 1008.43 1008.45 1008.18 1007.47 1008.41 1008.07 1007.71 1007.57 1007.29 1007.05 1008.06 1008.22 1008.38 1008.75 1008.82 1008.88 1009.08 1009.23 1009.14
1021.32 1021.05 1020.77 1020.53 1020.36 1020.16 1019.89 1018.43 1018.15 1017.27 1015.85 1013.83 1013.59 1012.89 1013.57 1013.56 1013.67 1013.46 1012.65 1011.78 1011.84 1011.35 1011.40 1010.19 1009.59 1009.40 1009.27 1008.33 1007.86 1008.19 1008.25 1008.86 1008.37 1008.29 1007.55 1008.19 1008.53 1008.71 1009.05 1009.10 1009.12 1009.28 1009.27 1009.12
1021.11 1020.89 1020.66 1020.45 1020.33 1020.16 1019.96 1018.49 1018.28 1017.71 1016.36 1014.38 1012.69 1013.30 1013.10 1013.34 1013.36 1013.25 1013.12 1012.74 1012.69 1012.17 1011.67 1010.64 1009.98 1009.60 1010.14 1009.11 1009.16 1009.22 1008.67 1009.37 1008.69 1008.45 1008.40 1008.41 1008.61 1008.68 1008.80 1009.07 1009.26 1009.32 1009.10 1008.86
1020.83 1020.66 1020.49 1020.29 1020.19 1020.03 1019.42 1018.64 1018.40 1018.25 1017.54 1015.12 1013.11 1012.57 1012.93 1013.08 1013.24 1013.31 1013.30 1013.16 1012.46 1011.78 1011.32 1010.71 1010.15 1010.19 1010.55 1009.72 1009.97 1008.81 1008.62 1008.95 1008.90 1008.16 1008.50 1008.98 1009.04 1009.15 1009.00 1009.13 1009.14 1009.03 1008.93 1008.71
1020.56 1020.44 1020.30 1020.15 1020.07 1019.79 1018.58 1017.79 1018.26 1018.31 1018.03 1016.25 1013.46 1012.66 1012.67 1012.85 1012.83 1012.58 1012.68 1012.66 1012.48 1012.18 1011.30 1010.66 1010.40 1010.63 1010.94 1009.80 1008.82 1008.67 1009.04 1009.27 1009.36 1009.23 1009.27 1009.18 1009.34 1009.29 1009.14 1008.99 1008.95 1008.93 1008.87 1008.73
1020.29 1020.20 1020.09 1020.01 1020.01 1019.31 1018.58 1018.58 1018.77 1018.99 1018.22 1016.47 1014.08 1012.14 1012.21 1012.61 1012.43 1012.16 1012.23 1012.45 1012.05 1011.80 1011.19 1010.72 1010.41 1010.33 1011.20 1009.92 1008.94 1008.83 1008.78 1008.90 1009.34 1009.52 1009.53 1009.34 1008.91 1008.71 1008.92 1009.07 1008.98 1008.86 1008.67 1008.46
1020.03 1019.99 1019.90 1019.83 1019.77 1019.53 1018.69 1018.08 1019.13 1019.05 1017.84 1016.83 1014.67 1012.42 1011.91 1012.13 1011.13 1010.98 1011.76 1011.53 1011.79 1011.45 1010.65 1010.51 1010.22 1010.19 1010.43 1009.26 1008.80 1008.84 1009.12 1009.23 1009.33 1009.33 1009.37 1009.32 1009.20 1009.09 1008.87 1008.78 1008.61 1008.39 1008.03 1007.68
1019.85 1019.80 1019.74 1019.21 1019.05 1018.07 1018.07 1018.93 1018.97 1018.53 1018.01 1015.92 1014.73 1012.73 1011.28 1012.02 1011.34 1011.19 1011.28 1011.07 1010.38 1010.59 1010.25 1009.73 1010.20 1009.29 1009.17 1008.67 1008.86 1008.81 1009.02 1009.16 1009.09 1009.19 1009.33 1009.09 1008.81 1008.64 1008.56 1008.38 1008.14 1007.79 1007.45 1007.30
1019.73 1019.59 1018.88 1017.75 1017.74 1018.74 1018.98 1018.74 1017.79 1017.43 1016.72 1016.12 1014.38 1013.48 1012.19 1012.24 1011.42 1010.81 1010.92 1010.59 1009.91 1009.58 1009.55 1010.05 1009.61 1008.65 1008.50 1008.96 1009.24 1009.27 1009.32 1009.35 1009.35 1009.20 1008.97 1008.88 1008.61 1008.41 1008.23 1008.00 1007.73 1007.44 1007.16 1007.00
1019.51 1018.61 1017.81 1017.94 1018.64 1018.17 1017.34 1016.71 1016.48 1016.10 1015.78 1014.73 1013.76 1013.16 1012.20 1012.55 1011.73 1011.00 1011.28 1010.41 1010.13 1009.46 1009.69 1009.50 1008.36 1008.25 1008.81 1009.43 1009.46 1009.58 1009.56 1009.51 1009.42 1009.23 1009.01 1008.76 1008.45 1008.07 1007.72 1007.39 1007.10 1006.89 1006.56 1006.56
1019.26 1018.90 1018.65 1018.11 1017.48 1016.89 1016.37 1015.52 1015.42 1015.17 1014.19 1013.28 1012.92 1012.55 1012.87 1012.50 1012.67 1011.81 1011.45 1010.62 1010.41 1009.47 1010.01 1009.51 1008.38 1008.89 1009.45 1009.61 1009.54 1009.55 1009.49 1009.37 1009.19 1009.02 1008.67 1008.37 1008.05 1007.73 1007.44 1007.04 1006.73 1006.51 1006.19 1006.13
1019.09 1018.69 1018.12 1017.03 1016.51 1015.98 1014.84 1013.84 1013.43 1013.56 1012.88 1012.61 1012.57 1012.47 1012.32 1012.76 1012.50 1011.88 1011.36 1010.69 1009.90 1010.23 1009.59 1008.74 1008.15 1009.44 1009.67 1009.76 1009.72 1009.52 1009.38 1009.11 1008.80 1008.44 1008.16 1007.83 1007.57 1007.36 1007.12 1006.77 1006.49 1006.30 1006.01 1005.35
1018.97 1018.40 1017.74 1016.01 1014.62 1013.60 1012.67 1012.25 1011.97 1012.27 1012.54 1012.33 1012.21 1012.51 1012.58 1012.40 1012.34 1011.79 1011.03 1010.36 1010.44 1009.51 1008.85 1008.36 1009.39 1009.87 1009.98 1009.95 1009.68 1009.35 1008.95 1008.69 1008.29 1007.90 1007.60 1007.35 1007.11 1006.89 1006.79 1006.76 1006.52 1006.15 1005.61 1004.98
1018.81 1018.17 1016.37 1014.32 1013.03 1012.72 1012.33 1012.17 1012.23 1012.48 1012.73 1012.65 1012.32 1012.42 1012.08 1011.87 1011.84 1011.37 1010.93 1010.68 1009.79 1008.89 1008.20 1008.88 1009.37 1010.01 1010.06 1009.92 1009.57 1009.12 1008.74 1008.36 1008.00 1007.65 1007.31 1007.11 1006.94 1006.78 1006.58 1006.35 1006.14 1005.56 1004.91 1004.36
1018.34 1017.46 1015.74 1013.84 1013.17 1012.19 1011.94 1011.95 1011.78 1012.13 1012.65 1012.70 1012.33 1012.01 1011.63 1011.05 1010.91 1010.56 1010.17 1009.79 1008.95 1008.61 1008.85 1009.12 1009.51 1009.83 1009.76 1009.66 1009.44 1008.95 1008.65 1008.35 1007.93 1007.55 1007.33 1007.18 1006.93 1007.03 1006.56 1006.07 1005.64 1005.03 1004.44 1003.81
1017.57 1016.50 1015.09 1013.63 1012.77 1012.03 1011.53 1011.51 1011.36 1012.28 1012.33 1011.99 1011.95 1011.43 1010.64 1010.40 1010.11 1009.51 1009.29 1008.76 1008.90 1008.83 1008.86 1008.97 1009.69 1009.84 1009.76 1009.41 1009.09 1008.75 1008.52 1008.29 1007.98 1007.68 1007.35 1007.17 1007.20 1006.69 1006.37 1005.74 1005.06 1004.53 1003.88 1003.35
Wind_Speed
25 26 26 26 25 24 4 5 3 5 4 6 2 1 3 1 3 2 2 3 6 3 2 2 3 2 5 4 4 2 2 8 9 13 6 5 10 12 9 7 6 2 7 5
24 25 27 27 25 18 5 1 3 4 4 4 4 4 4 5 5 6 2 3 5 2 3 2 2 2 4 4 4 6 3 7 9 14 13 10 8 8 11 9 7 8 8 2
23 25 27 28 27 19 5 4 4 5 2 1 4 2 3 4 6 7 4 4 1 2 1 1 0 2 3 2 4 3 3 13 11 13 16 8 7 8 10 14 11 9 8 10
22 25 27 31 30 23 5 4 5 5 3 4 2 2 1 2 2 3 4 3 3 2 3 4 5 3 5 6 5 5 7 13 15 13 14 13 13 17 17 13 16 15 14 6
22 24 26 29 34 32 4 4 4 2 2 0 3 2 3 2 3 4 3 0 1 2 4 4 8 4 4 5 2 6 6 10 9 16 16 14 16 16 17 17 17 12 16 10
20 22 23 25 29 24 6 4 1 6 2 1 5 3 2 2 3 3 3 4 6 4 4 6 9 9 10 11 9 10 9 8 8 16 15 9 15 18 19 19 17 13 15 7
16 18 21 22 23 19 5 5 5 5 3 2 4 1 2 2 4 5 3 4 5 7 8 10 11 13 11 10 11 11 9 7 8 9 5 13 2 6 6 9 12 7 3 6
14 15 17 18 19 21 5 5 5 4 1 3 3 1 3 4 3 7 6 2 4 6 8 9 7 7 6 5 4 4 9 8 6 6 10 10 9 5 6 7 3 2 2 3
13 15 13 16 16 18 6 6 5 4 5 5 2 3 2 6 4 6 4 3 5 5 6 6 7 5 3 5 7 3 4 9 8 4 9 8 9 5 4 3 7 5 2 4
12 13 12 14 16 15 7 4 8 5 4 3 3 3 4 2 3 5 2 2 5 5 6 8 8 7 1 6 6 6 8 7 12 9 9 1 6 5 2 10 6 4 5 5
10 12 11 11 14 15 9 3 6 6 4 4 3 2 5 4 4 6 6 7 7 5 6 4 3 6 4 5 2 4 6 6 6 6 8 11 6 3 7 6 4 4 4 5
9 10 9 7 10 13 12 2 2 4 5 6 4 9 11 11 9 8 3 6 3 5 4 3 2 5 4 5 5 4 6 4 7 5 7 4 4 5 2 3 2 3 5 7
8 9 9 5 6 8 9 5 5 4 4 5 5 4 4 5 11 10 5 3 5 4 5 5 3 6 3 7 5 6 5 5 7 5 4 2 8 5 5 4 5 8 10 11
7 8 8 5 5 7 8 4 4 5 4 5 5 3 4 2 7 9 11 8 4 5 4 4 4 5 2 4 5 8 7 2 7 11 13 12 11 7 9 9 10 13 14 15
7 7 6 6 5 7 8 2 0 3 6 6 7 10 3 4 3 7 11 11 10 4 5 5 5 2 3 7 5 10 8 8 9 9 8 9 12 13 8 12 13 11 11 12
6 6 6 5 4 7 4 5 4 0 4 5 4 4 4 2 5 7 8 8 8 6 4 4 3 2 5 6 8 5 5 6 9 12 14 14 12 13 13 11 10 13 15 16
6 6 6 4 4 6 4 6 5 1 4 4 5 3 5 2 3 4 5 7 5 6 5 6 7 6 5 9 12 14 14 11 5 6 6 9 11 7 10 13 15 14 15 16
6 6 5 4 6 9 5 3 8 6 4 3 5 3 4 2 2 4 3 5 6 6 6 3 7 4 5 6 8 4 3 3 6 5 5 8 10 12 14 13 14 16 17 16
5 3 4 4 5 4 4 5 9 4 4 4 3 4 2 2 2 1 5 4 6 3 6 7 3 7 7 5 8 6 4 6 10 5 9 11 13 14 15 16 17 18 17 18
2 5 5 4 3 9 7 5 5 4 3 4 5 1 4 3 0 2 3 4 4 4 3 2 6 8 7 5 6 6 7 7 5 10 12 14 16 16 17 18 17 17 17 18
3 3 1 5 3 5 3 3 4 3 4 5 4 5 4 4 5 2 0 2 1 4 5 4 3 3 6 4 2 2 3 4 8 10 13 15 17 17 18 18 18 18 20 15
2 2 1 1 4 3 5 4 3 4 5 5 5 3 4 1 2 4 4 4 3 4 2 4 4 5 4 2 3 5 6 7 10 12 15 16 16 17 17 18 18 19 20 14
2 3 3 3 4 2 7 7 5 4 5 5 6 5 3 4 5 4 4 5 4 1 5 4 3 6 3 4 5 7 8 9 12 16 16 16 17 17 16 17 18 17 18 17
2 3 2 6 6 6 5 5 1 4 2 1 3 2 3 3 4 3 4 1 3 4 5 3 6 5 6 6 7 9 12 14 16 16 15 16 15 15 16 15 14 14 15 17
3 4 5 8 5 2 2 3 3 4 2 3 2 3 4 3 4 3 2 3 5 5 1 4 5 7 7 7 9 12 13 13 13 14 14 14 16 16 17 15 13 15 14 13
3 4 5 5 5 7 6 6 5 3 2 3 4 3 4 6 3 5 6 4 6 1 2 3 3 6 7 8 10 11 11 12 13 13 13 15 15 16 16 16 13 13 13 10
4 5 8 8 5 5 3 4 3 3 5 5 3 6 6 0 4 5 4 3 3 3 3 3 5 6 8 9 10 10 11 11 11 13 13 14 15 16 13 14 14 14 12 11
Wind_Direction
344 344 343 344 344 340 253 283 198 128 250 223 256 136 17 253 42 89 120 41 67 74 77 150 166 158 34 18 333 272 222 290 266 273 93 293 274 287 275 255 187 212 308 319
345 346 343 344 347 349 308 284 99 157 262 223 174 126 119 33 39 49 37 91 29 55 71 241 281 130 105 25 7 6 30 253 273 249 175 187 230 210 263 280 296 262 290 90
349 348 345 345 347 348 270 260 171 152 182 348 304 171 105 124 53 66 54 77 126 165 181 76 47 191 134 353 343 20 245 268 270 285 318 334 285 233 232 270 282 291 227 288
350 351 350 347 349 348 276 343 60 5 158 118 34 283 324 163 110 64 23 97 57 7 262 253 256 273 269 206 123 230 277 273 274 273 272 275 277 275 272 249 273 281 303 314
356 355 353 354 349 336 58 359 326 162 70 225 246 156 69 337 97 335 108 19 93 309 286 325 312 306 275 294 196 256 277 275 276 270 267 261 267 261 258 256 252 257 266 273
359 359 357 360 359 342 39 27 120 286 143 210 250 63 37 51 333 117 43 347 291 252 24 331 310 295 287 281 281 286 278 278 267 267 269 280 267 251 247 254 249 247 255 62
359 1 1 1 4 0 356 20 289 291 98 282 32 312 332 289 344 308 336 311 284 45 312 284 253 254 261 268 259 245 255 250 260 278 283 248 339 16 337 286 280 271 269 65
355 1 2 2 2 359 15 8 328 342 36 351 151 182 301 277 233 252 277 267 354 312 283 277 266 201 210 193 199 228 227 242 264 255 242 271 223 76 344 334 203 76 262 101
348 359 360 1 2 359 317 36 322 314 308 82 4 320 324 299 284 236 223 150 310 273 267 244 249 255 7 205 172 235 209 231 251 220 280 271 67 50 347 303 233 72 41 48
343 343 358 1 0 360 325 40 1 286 306 85 282 315 341 311 272 276 232 319 227 226 245 250 253 252 357 243 245 174 198 219 233 235 255 298 48 2 305 240 56 39 6 12
333 337 353 360 359 358 336 45 12 335 311 294 236 235 251 237 249 283 60 251 190 238 246 271 189 260 152 258 319 268 255 249 218 241 268 246 28 224 307 45 78 12 6 3
324 331 340 3 359 354 333 311 21 326 259 340 312 288 287 275 286 294 219 341 312 352 274 227 306 224 205 320 257 176 251 298 335 297 36 73 352 326 34 340 3 11 326 316
312 320 330 356 354 359 342 326 341 249 264 236 233 170 108 186 230 257 277 173 333 235 345 325 327 266 291 263 244 289 212 232 253 304 174 324 329 312 276 258 297 315 306 301
298 309 323 340 339 348 326 325 1 280 293 287 103 154 272 304 253 229 232 293 257 282 250 256 271 275 139 290 327 283 303 325 277 272 268 280 282 301 284 282 292 296 294 285
298 305 316 325 326 327 293 288 23 329 317 328 308 315 123 225 207 239 236 239 233 228 220 232 247 311 270 244 288 263 257 250 267 288 327 300 298 295 286 301 298 295 296 292
295 298 306 310 315 315 263 207 152 155 331 281 289 54 202 244 279 234 207 208 215 238 246 251 252 281 261 264 261 312 258 260 274 286 293 295 294 295 289 288 306 306 304 297
292 289 298 293 301 293 296 0 28 1 292 269 280 248 128 286 231 153 173 188 201 237 229 241 261 248 198 264 269 280 282 300 311 297 283 263 255 301 318 302 295 295 292 291
281 284 286 276 277 267 241 117 200 265 272 255 274 270 228 2 214 171 176 180 203 196 249 224 250 163 232 265 276 310 271 248 256 270 267 286 299 293 292 297 299 294 290 292
271 267 279 244 226 221 75 93 144 209 296 289 241 279 71 343 204 243 183 233 221 118 239 234 259 243 221 266 302 271 262 276 306 308 290 294 297 303 299 295 296 294 295 295
211 249 223 194 95 114 156 183 200 197 199 223 257 333 249 295 250 196 257 202 260 249 147 103 235 256 285 341 329 300 286 289 293 295 303 310 302 303 302 297 296 292 296 299
233 220 232 68 137 224 218 228 230 151 230 220 236 253 263 143 276 282 240 300 220 256 112 265 220 216 112 93 97 16 318 284 286 292 294 297 297 298 300 300 299 297 290 301
5 340 334 269 225 219 238 214 170 215 245 176 224 160 220 160 257 250 181 254 201 257 86 239 243 103 87 16 11 340 317 299 297 301 301 298 296 301 303 301 302 303 299 289
228 223 233 202 158 230 222 197 189 208 198 193 191 189 221 172 233 240 232 227 231 75 227 240 43 78 27 4 356 335 319 299 299 300 301 303 302 305 305 305 300 306 297 288
205 168 254 229 189 231 208 227 206 103 211 131 272 239 231 189 193 253 245 162 246 242 233 213 88 17 350 343 336 310 314 313 308 309 307 307 311 311 313 309 301 290 285 291
198 198 226 221 247 285 256 262 218 177 237 283 258 233 251 174 241 222 239 208 251 242 242 66 38 4 347 326 318 318 315 316 314 318 314 319 316 320 312 312 307 298 292 292
224 247 253 235 253 235 211 224 235 163 202 248 224 261 229 224 240 207 203 244 216 87 83 59 31 3 341 329 320 318 320 318 318 319 325 320 327 315 306 308 299 297 297 294
208 229 241 271 308 300 329 254 222 148 205 233 210 226 208 61 236 221 210 269 72 57 68 41 27 337 322 318 320 322 325 323 326 328 326 331 320 322 311 303 307 300 292 296